Weather History for Charlotte, NC

Change the Weather History Date:

Thursday, November 8, 2012

  Actual Average Record
Temperature  
Mean Temperature 51 °F 53 °F  
Max Temperature 66 °F 65 °F 78 °F (1934)
Min Temperature 36 °F 41 °F 25 °F (1967)
Degree Days  
Heating Degree Days 14 12  
Month to date heating degree days 130 88  
Since 1 July heating degree days 312 294  
Cooling Degree Days 0 0  
Month to date cooling degree days 0 0  
Year to date cooling degree days 1790 1513  
Growing Degree Days 1 (Base 50)    
Moisture  
Dew Point 28 °F    
Average Humidity 52    
Maximum Humidity 85    
Minimum Humidity 18    
Precipitation  
Precipitation 0.00 in 0.11 in 2.79 in (1913)
Month to date precipitation T 0.81  
Year to date precipitation 29.20 36.05  
Snow  
Snow 0.00 in 0.00 in 0.00 in ()
Month to date snowfall 0.0 0.0  
Since 1 July snowfall 0.0 0.0  
Since 1 September snowfall 0.0 0.0  
Snow Depth 0.00 in    
Sea Level Pressure  
Sea Level Pressure 30.07 in    
Wind  
Wind Speed 6 mph (NNW)    
Max Wind Speed 16 mph    
Max Gust Speed 24 mph    
Visibility 10 miles    
Events      
T = Trace of Precipitation, MM = Missing Value Source: NWS Daily Summary

Daily Weather History Graph

Daily Weather History Graph

Search for Another Location

Airport:

Trip Planner

Search our weather history database for the weather conditions in past years. The results will help you decide how hot, cold, wet, or windy it might be!

Date:

Astronomy

Nov. 08, 2012 Rise Set
Actual Time 6:52 AM EST 5:22 PM EST
Civil Twilight 6:25 AM EST 5:49 PM EST
Nautical Twilight 5:55 AM EST 6:19 PM EST
Astronomical Twilight 5:25 AM EST 6:49 PM EST
Moon 12:58 AM EST (11/8) 1:51 PM EST (11/8)
Length of Visible Light 11h 23m
Length of Day
10h 30m
Waning Crescent, 33% of the Moon is Illuminated
Nov 8
Waning Crescent
Nov 13
New
Nov 20
First Quarter
Nov 28
Full
Dec 6
Last Quarter

Hourly Weather History & Observations

Time (EST) Temp. Windchill Dew Point Humidity Pressure Visibility Wind Dir Wind Speed Gust Speed Precip Events Conditions
12:52 AM 41.0 °F 39.0 °F 36.0 °F 82% 29.97 in 10.0 mi North 3.5 mph - N/A   Scattered Clouds
1:52 AM 41.0 °F 39.0 °F 36.0 °F 82% 29.98 in 10.0 mi NNW 3.5 mph - N/A   Partly Cloudy
2:52 AM 39.9 °F 37.8 °F 35.1 °F 83% 29.99 in 10.0 mi NNW 3.5 mph - N/A   Scattered Clouds
3:52 AM 39.0 °F 34.8 °F 34.0 °F 82% 29.99 in 10.0 mi WNW 5.8 mph - N/A   Scattered Clouds
4:52 AM 39.9 °F 37.8 °F 34.0 °F 79% 30.01 in 10.0 mi NNW 3.5 mph - N/A   Overcast
5:52 AM 37.9 °F 35.5 °F 34.0 °F 86% 30.03 in 9.0 mi WNW 3.5 mph - N/A   Scattered Clouds
6:52 AM 37.0 °F 33.3 °F 34.0 °F 89% 30.06 in 8.0 mi NW 4.6 mph - N/A   Partly Cloudy
7:52 AM 42.1 °F 40.2 °F 35.1 °F 76% 30.08 in 8.0 mi NW 3.5 mph - N/A   Partly Cloudy
8:52 AM 48.0 °F - 36.0 °F 63% 30.10 in 10.0 mi NW 4.6 mph - N/A   Scattered Clouds
9:52 AM 55.0 °F - 32.0 °F 42% 30.10 in 10.0 mi NW 6.9 mph - N/A   Partly Cloudy
10:52 AM 57.0 °F - 26.1 °F 30% 30.11 in 10.0 mi NW 11.5 mph 23.0 mph N/A   Partly Cloudy
11:52 AM 60.8 °F - 24.8 °F 25% 30.09 in 10.0 mi NNW 13.8 mph 20.7 mph N/A   Clear
12:52 PM 62.1 °F - 25.0 °F 24% 30.06 in 10.0 mi Variable 5.8 mph - N/A   Clear
1:52 PM 64.0 °F - 23.0 °F 21% 30.05 in 10.0 mi Variable 6.9 mph 19.6 mph N/A   Partly Cloudy
2:52 PM 64.9 °F - 19.0 °F 17% 30.05 in 10.0 mi North 11.5 mph - N/A   Clear
3:52 PM 64.0 °F - 21.0 °F 19% 30.05 in 10.0 mi WNW 8.1 mph 16.1 mph N/A   Clear
4:52 PM 61.0 °F - 21.9 °F 22% 30.07 in 10.0 mi NW 8.1 mph - N/A   Clear
5:52 PM 55.0 °F - 21.0 °F 27% 30.09 in 10.0 mi NNW 4.6 mph - N/A   Clear
6:52 PM 51.1 °F - 21.9 °F 32% 30.12 in 10.0 mi Calm Calm - N/A   Clear
7:52 PM 51.1 °F - 23.0 °F 33% 30.13 in 10.0 mi NW 3.5 mph - N/A   Clear
8:52 PM 48.0 °F - 24.1 °F 39% 30.14 in 10.0 mi NNW 6.9 mph - N/A   Clear
9:52 PM 46.0 °F 42.5 °F 24.1 °F 42% 30.16 in 10.0 mi North 6.9 mph - N/A   Clear
10:52 PM 45.0 °F 41.2 °F 25.0 °F 46% 30.16 in 10.0 mi NNW 6.9 mph - N/A   Clear
11:52 PM 43.0 °F 41.3 °F 26.1 °F 51% 30.16 in 10.0 mi North 3.5 mph - N/A   Clear